Date,TemperatureHighF,TemperatureAvgF,TemperatureLowF,DewpointHighF,DewpointAvgF,DewpointLowF,HumidityHigh,HumidityAvg,HumidityLow,PressureMaxIn,PressureMinIn,WindSpeedMaxMPH,WindSpeedAvgMPH,GustSpeedMaxMPH,PrecipitationSumIn
2013-2-1,48.4,41.2,36.9,39.6,35.6,33.1,91,81,67,29.79,29.30,11,4,18,0.06
2013-2-2,39.6,37.2,32.9,39.3,35.2,29.2,99,93,86,29.68,29.15,11,4,19,0.06
2013-2-3,37.6,33.0,28.8,29.0,26.5,23.1,85,77,67,29.90,29.68,10,4,16,0.00
2013-2-4,40.6,36.6,32.5,38.8,34.6,29.0,96,93,84,29.80,29.70,8,3,14,0.17
2013-2-5,45.1,40.1,36.5,39.4,36.2,32.1,94,86,76,29.78,29.48,9,4,18,0.00
2013-2-6,42.3,33.8,23.0,32.3,27.3,19.7,87,78,58,29.58,29.49,8,2,13,0.00
2013-2-7,39.2,28.4,19.6,33.0,24.7,17.9,94,86,73,29.78,29.58,7,1,11,0.00
2013-2-8,35.2,28.7,22.3,32.3,26.1,20.3,96,90,79,29.91,29.78,4,1,6,0.01
2013-2-9,35.1,28.2,21.9,30.7,24.4,20.7,97,86,70,30.01,29.91,7,1,10,0.00
2013-2-10,33.8,28.5,24.8,29.0,22.0,19.6,86,76,67,30.01,29.55,7,2,11,0.00
2013-2-11,28.9,26.6,22.3,25.3,21.7,18.7,91,82,74,29.88,29.77,11,4,18,0.00
2013-2-12,30.4,28.1,26.4,29.1,25.4,21.6,99,90,77,29.90,29.75,8,3,13,0.00
2013-2-13,28.9,28.8,28.4,28.7,28.5,28.2,99,99,99,30.03,29.91,2,0,4,0.00
2013-2-15,36.9,32.7,32.4,32.8,31.0,30.7,95,93,85,30.14,30.06,0,0,0,0.00
2013-2-16,37.9,33.4,30.6,35.6,31.4,28.5,98,92,85,30.22,29.82,4,1,6,0.00
2013-2-17,39.0,33.2,29.5,36.4,31.6,28.4,98,94,86,30.24,30.19,2,0,4,0.00
2013-2-18,37.8,33.6,31.3,35.2,31.0,28.9,98,90,80,30.19,29.77,4,0,8,0.01
2013-2-19,33.6,31.9,29.1,32.2,30.2,27.9,98,93,89,30.06,29.76,8,3,14,0.05
2013-2-20,37.9,30.6,26.2,33.1,27.4,23.5,97,88,73,30.09,29.58,8,4,14,0.01
2013-2-21,40.3,25.8,17.1,34.0,20.8,12.5,93,81,69,30.11,30.06,6,1,9,0.01
2013-2-22,27.5,21.3,11.1,23.6,17.6,8.0,93,86,78,30.05,29.83,9,4,15,0.00
2013-2-23,33.3,29.3,25.3,32.0,27.7,22.8,98,94,88,29.83,29.70,5,2,9,0.00
2013-2-24,40.6,36.2,31.1,39.8,35.8,30.9,99,98,95,29.92,29.72,4,1,7,0.15
2013-2-25,46.0,39.8,35.2,44.5,39.0,35.0,99,97,90,30.24,29.91,8,2,13,0.05
2013-2-26,45.7,37.8,30.9,44.0,35.4,30.7,99,91,80,30.33,30.22,13,4,19,0.00
2013-2-27,42.6,36.4,29.3,36.7,32.9,27.4,94,87,78,30.38,30.33,11,4,15,0.00
2013-2-28,41.9,36.4,30.0,38.7,33.4,28.5,98,89,78,30.37,30.16,4,1,8,0.00